Location: Colleton State Park
(33.0623°N, 80.6164°W)
Time: 15:52:12
(UTC-04:00)

Hubble Space Telescope - Pass Details

Date: 19 May 2019
Orbit: 536 x 540 km, 28.5° (Epoch: 24 June)

Event Time Altitude Azimuth Distance (km) Brightness Sun altitude
Rises 21:29:54 0° 263° (W) 2,671 5.1 -13.9°
Reaches altitude 10° 21:32:42 10° 244° (WSW) 1,778 3.8 -14.4°
Maximum altitude 21:35:31 18° 201° (SSW) 1,342 2.6 -14.9°
Enters shadow 21:36:54 16° 176° (S) 1,455 2.6 -15.1°
